Regional Weather Roundup
Issued by NWS Kansas City/Pleasant Hill, MO

Home | Current Version | Previous Version | Graphics & Text | Print | Product List | Glossary Off
Versions: 1 2 3 4 5 6 7 8 9 10 11 12 13 14 15 16 17 18 19 20 21 22 23 24 25 26 27 28

000
ASUS43 KEAX 221310
RWREAX

WEATHER ROUNDUP FOR EASTERN KANSAS AND NORTHWEST MISSOURI
NATIONAL WEATHER SERVICE KANSAS CITY/PLEASANT HILL MO
800 AM CDT TUE MAY 22 2018

KSZ040-057-103>105-MOZ028-029-037-043-221400-
...KANSAS CITY METROPOLITAN AREA...

CITY           SKY/WX    TMP DP  RH WIND       PRES   REMARKS
K.C. INTL      MOSUNNY   65  61  87 S7        30.05R
K.C. DOWNTOWN  SUNNY     66  61  84 CALM      30.04R
LEES SUMMIT    CLOUDY    67  63  87 S5        30.06R
OLATHE - IXD   CLOUDY    65  61  87 S7        30.07R
OLATHE - OJC   CLOUDY    63  61  93 S6        30.06R
LAWRENCE       CLOUDY    64  61  90 CALM      30.05R

$$

MOZ001>008-011>017-020>025-030>033-038>040-044>046-053-054-221400-
...NORTHERN AND CENTRAL MISSOURI...

CITY           SKY/WX    TMP DP  RH WIND       PRES   REMARKS
ST. JOSEPH     SUNNY     65  61  87 CALM      30.04R
MOSBY          SUNNY     61  59  94 CALM      30.05R
WARRENSBURG    CLOUDY    61  61 100 CALM      30.07R
WHITEMAN AFB   MOSUNNY   64  62  92 SE3       30.03R
CLINTON        CLOUDY    63  63 100 CALM      30.08R
SEDALIA        CLOUDY    66  63  90 CALM      30.08R
WARSAW         NOT AVBL
CHILLICOTHE      N/A     63  60  90 CALM      30.06R
KIRKSVILLE     CLOUDY    64  62  93 CALM      30.08R

$$

MOZ041-047>049-056>058-063>065-088>090-097-221400-
...EASTERN AND SOUTHERN MISSOURI...

CITY           SKY/WX    TMP DP  RH WIND       PRES   REMARKS
ST. LOUIS INTL CLOUDY    72  64  76 W5        30.05R
SPIRIT OF STL  MOSUNNY   70  63  78 CALM      30.05R
COLUMBIA       CLOUDY    63  61  93 CALM      30.08R
JEFFERSON CITY CLOUDY    61  61 100 CALM      30.07R FOG
ROLLA          SUNNY     68  62  81 NW3       30.08R
OSAGE BEACH    SUNNY     64  62  93 CALM      30.09R
SPRINGFIELD    FOG       67  66  97 S3        30.07R VSB 1/4
BRANSON        MOSUNNY   68  68 100 CALM      30.09R
JOPLIN         SUNNY     69  64  84 CALM      30.06S
WEST PLAINS    FOG       68  68 100 CALM      30.09R VSB 1/4

$$

IAZ060-094-KSZ022-034>040-054-083-096-NEZ052-066-093-221400-
...KANSAS...SOUTHEAST NEBRASKA AND IOWA...

CITY           SKY/WX    TMP DP  RH WIND       PRES   REMARKS
TOPEKA         CLOUDY    65  63  93 CALM      30.04S
MANHATTAN      SUNNY     68  63  84 CALM      30.03R
EMPORIA        CLOUDY    65  62  90 S6        30.05R
CHANUTE        CLOUDY    67  64  90 SE8       30.06R
WICHITA        CLOUDY    67  64  90 S7        30.03R
OMAHA          PTSUNNY   66  59  78 SW5       30.04R
LINCOLN        PTSUNNY   66  61  84 S8        29.99S THUNDER
FALLS CITY     CLOUDY    68  61  78 S8        30.02R
LAMONI         SUNNY     64  60  87 E3        30.05R
DES MOINES     MOSUNNY   66  60  81 CALM      30.04R

$$





USA.gov is the U.S. government's official web portal to all federal, state and local government web resources and services.